Regional Weather Roundup
Issued by NWS

Home | Current Version | Previous Version | Text Only | Print | Product List | Glossary Off
Versions: 1 2 3 4 5 6 7 8 9 10 11 12 13 14 15 16 17 18 19 20 21 22 23 24 25 26 27 28 29 30 31 32 33 34 35 36 37 38 39 40 41 42 43 44 45 46 47 48 49 50

000
ASUS43 KLMK 201902
RWRKY
KENTUCKY REGIONAL WEATHER ROUNDUP
NATIONAL WEATHER SERVICE LOUISVILLE KY
300 PM EDT FRI OCT 20 2017

NOTE "FAIR" INDICATES FEW OR NO CLOUDS BELOW 12,000 FEET
WITH NO SIGNIFICANT WEATHER AND/OR OBSTRUCTIONS TO VISIBILITY.

KYZ001>023-026-027-061>063-070>075-202000-
WESTERN AND SOUTH CENTRAL KENTUCKY

CITY           SKY/WX    TMP DP  RH WIND       PRES   REMARKS
PADUCAH        SUNNY     76  50  40 SE9       30.16F
HENDERSON      SUNNY     78  52  40 VRB3      30.18F
OWENSBORO      SUNNY     77  51  40 S7        30.20F
HOPKINSVILLE   NOT AVBL
BOWLING GREEN  SUNNY     76  50  40 S5        30.22F
GLASGOW        SUNNY     78  46  33 CALM      30.22F HAZE
$$

KYZ024-025-028>034-038-045-046-053-202000-
NORTH CENTRAL KENTUCKY

CITY           SKY/WX    TMP DP  RH WIND       PRES   REMARKS
LOUISVILLE/SDF MOSUNNY   76  51  41 S7        30.21F
LOUISVILLE/LOU SUNNY     76  53  44 SE6       30.22F
FORT KNOX      SUNNY     76  49  37 VRB3      30.21F
$$

KYZ035>037-039>044-047>052-055>060-089>105-202000-
NORTHEAST KENTUCKY

CITY           SKY/WX    TMP DP  RH WIND       PRES   REMARKS
LEXINGTON      SUNNY     74  51  44 MISG      30.24F
COVINGTON      MOSUNNY   74  55  51 S8        30.23F
FRANKFORT      SUNNY     75  49  39 S3        30.23F
$$

KYZ054-064>069-076>088-106>120-202000-
SOUTHEAST KENTUCKY

CITY           SKY/WX    TMP DP  RH WIND       PRES   REMARKS
JACKSON        SUNNY     72  51  47 CALM      30.26F
LONDON         SUNNY     73  48  41 CALM      30.25F
SOMERSET       NOT AVBL
MIDDLESBORO    SUNNY     74  51  43 CALM      30.25F
MONTICELLO     CLEAR     74  51  44 VRB6      30.25F
$$





USA.gov is the U.S. government's official web portal to all federal, state and local government web resources and services.